User: anonymous   Login
Location: Unspecified
(0.0000°N, 0.0000°E)
Time: 08:50:22
(UTC+00:00)
Language:

STARLINK-30043 - Orbit

View from above orbital plane
View from above orbital plane
View from above satellite
View from above satellite

Ground track
Ground track

The orbit is defined by the following mean orbital elements,

1 57417U          26145.54733469 +.00000000 +00000-0 +83296-4 0 00008
2 57417  43.0024 174.5781 0001542 266.5208  93.5468 15.27589817    01
Epoch (UTC): 25 May 2026 13:08:09
Eccentricity: 0.0001542
inclination: 43.0024°
perigee height: 482 km
apogee height: 484 km
right ascension of ascending node: 174.5781°
argument of perigee: 266.5208°
revolutions per day: 15.27589817
mean anomaly at epoch: 93.5468°

The dashed part of the orbit path shows where the satellite is in the earth's shadow,  

DLR